This is the latest recevied weather packets stored in our database for station/object IK1PCD-11. If no packets are shown the sender has not sent any weather packets the latest 10 day(s).
| Time | Temp. | Humidity | Pressure | Rain* | Wind** | Luminosity | Snow |
|---|---|---|---|---|---|---|---|
| 1777441615 | 3.89° C | 95% | 1015.5 hPa | - | - | - | - |
| 1777440715 | 3.89° C | 94% | 1015.4 hPa | - | - | - | - |
| 1777439815 | 3.89° C | 98% | 1015.5 hPa | - | - | - | - |
| 1777437114 | 3.33° C | 93% | 1015.1 hPa | - | - | - | - |
| 1777436214 | 3.33° C | 91% | 1015.1 hPa | - | - | - | - |
| 1777435314 | 3.33° C | 90% | 1015.3 hPa | - | - | - | - |
| 1777434414 | 3.33° C | 90% | 1015.3 hPa | - | - | - | - |
| 1777433514 | 3.33° C | 86% | 1015.4 hPa | - | - | - | - |
| 1777432614 | 3.89° C | 84% | 1015.4 hPa | - | - | - | - |
| 1777431713 | 3.89° C | 80% | 1015.4 hPa | - | - | - | - |
| 1777430812 | 3.89° C | 83% | 1015.4 hPa | - | - | - | - |
| 1777429914 | 3.89° C | 82% | 1015.6 hPa | - | - | - | - |
| 1777429014 | 3.89° C | 82% | 1015.4 hPa | - | - | - | - |
| 1777428114 | 4.44° C | 79% | 1015.3 hPa | - | - | - | - |
| 1777427214 | 4.44° C | 82% | 1015.3 hPa | - | - | - | - |
| 1777426313 | 3.89° C | 86% | 1015.3 hPa | - | - | - | - |
| 1777425413 | 3.89° C | 87% | 1015.4 hPa | - | - | - | - |
| 1777422713 | 3.89° C | 86% | 1015.3 hPa | - | - | - | - |
| 1777421813 | 3.89° C | 86% | 1015.4 hPa | - | - | - | - |
| 1777420913 | 3.89° C | 90% | 1015.4 hPa | - | - | - | - |
| 1777420013 | 3.89° C | 91% | 1015.4 hPa | - | - | - | - |
| 1777419113 | 4.44° C | 94% | 1015.5 hPa | - | - | - | - |
| 1777418213 | 4.44° C | 94% | 1015.5 hPa | - | - | - | - |
| 1777417313 | 5° C | 97% | 1015.3 hPa | - | - | - | - |
| 1777416411 | 5° C | 98% | 1015.4 hPa | - | - | - | - |
* Rain since midnight (hover to see other rain measurements)
** Current wind speed in m/s (hover to see current wind gust speed)